Tracking 19909 objects as of 21-Oct-2019
HD Live streaming from Space Station
objects crossing your sky now

THORAD DELTA 1 DEB

Track THORAD DELTA 1 DEB now!
10-day predictions


NORAD ID: 42620
Int'l Code: 1974-089GM
Perigee: 1,468.3 km
Apogee: 1,706.1 km
Inclination: 101.1 °
Period: 117.8 minutes
Semi major axis: 7958 km
RCS: Unknown
Launch date: November 15, 1974
Source: United States (US)
Launch site: AIR FORCE WESTERN TEST RANGE (AFWTR)

Note: This is SATELLITE DEBRIS
aabbcc
Your satellite tracking list
Your tracking list is empty




NASA's NSSDC Master Catalog

Two Line Element Set (TLE):
1 42620U 74089GM  19293.02126818  .00000005  00000-0  38036-3 0  9992
2 42620 101.0933 136.4403 0149393  10.6091 349.8063 12.22876094974756
Source of the keplerian elements: AFSPC